^^
Station Historical Data
Daily Summary for June 14, 2018 Units:  Metric    English   Both
« Previous Day
Next Day »
Daily Weekly Monthly Yearly Custom
  High: Low: Average:
Temperature: -17.8 °C 22.3 °C 28.9 °C
Dew Point: -17.8 °C 13.8 °C 19.4 °C
Humidity: Humidity% 40% 58%
Wind Speed: 0km/h 1.9km/h 10.6km/h
Wind Gust: 0km/h - -
Wind- - SSE
Pressure: 0 hPa 1006.7 hPa -
Precipitation: 0 mm    
Historical Graphs
 
 
Tabular Data for June 14, 2018
Time Temperature Dew Point Pressure Wind Wind Speed Wind Gust Humidity Rainfall Rate (Hourly)
-17.8 °C -17.8 °C 0 hPa Calm     Humidity% 0 mm
00:04 23.7 °C 13.8 °C 1012.4 hPa SE 5.6 km/h 3.5 km/h 54% 0 mm
00:09 23.7 °C 13.8 °C 1012.4 hPa SE 5.6 km/h 2.7 km/h 54% 0 mm
00:14 23.7 °C 14.1 °C 1012.4 hPa East 3.7 km/h 2.1 km/h 55% 0 mm
00:19 23.6 °C 14.1 °C 1012.1 hPa South 5.6 km/h 4.7 km/h 55% 0 mm
00:24 23.6 °C 14.1 °C 1012.4 hPa SE 7.4 km/h 2.3 km/h 55% 0 mm
00:29 23.6 °C 14 °C 1012.1 hPa SE 5.6 km/h 1.4 km/h 55% 0 mm
00:34 23.6 °C 14 °C 1012.4 hPa ENE 7.4 km/h 5.8 km/h 55% 0 mm
00:39 23.6 °C 14 °C 1012.4 hPa East 5.6 km/h 2.1 km/h 55% 0 mm
00:44 23.6 °C 14 °C 1012.4 hPa SE 5.6 km/h 2.1 km/h 55% 0 mm
00:49 23.5 °C 13.9 °C 1012.4 hPa SSE 5.6 km/h 2.4 km/h 55% 0 mm
00:54 23.5 °C 13.9 °C 1012.4 hPa SE 6.4 km/h 3.1 km/h 55% 0 mm
00:59 23.4 °C 14.2 °C 1012.4 hPa SE 3.7 km/h 3.1 km/h 56% 0 mm
01:04 23.4 °C 14.1 °C 1012.4 hPa ESE 9.3 km/h 3.1 km/h 56% 0 mm
01:09 23.3 °C 14.1 °C 1012.4 hPa SSE 3.7 km/h 2.7 km/h 56% 0 mm
01:14 23.3 °C 14.3 °C 1012.4 hPa SSE 5.6 km/h 0.3 km/h 57% 0 mm
01:19 23.3 °C 14.3 °C 1012.4 hPa SSE 5.6 km/h 2.6 km/h 57% 0 mm
01:24 23.2 °C 14.2 °C 1012.4 hPa SE 1.9 km/h 1.1 km/h 57% 0 mm
01:29 23.2 °C 14.4 °C 1012.1 hPa SE 5.6 km/h 1.9 km/h 58% 0 mm
01:34 23.2 °C 14.4 °C 1012.1 hPa SSE 5.6 km/h 3.1 km/h 58% 0 mm
01:39 23.1 °C 14.4 °C 1012.1 hPa SE 13 km/h 5.1 km/h 58% 0 mm
01:44 23.1 °C 14.4 °C 1012.1 hPa SE 11.1 km/h 2.1 km/h 58% 0 mm
01:49 23.1 °C 14.4 °C 1012.1 hPa SE 3.7 km/h 1.9 km/h 58% 0 mm
01:54 23.2 °C 14.7 °C 1012.1 hPa ESE 5.6 km/h 1.9 km/h 59% 0 mm
01:59 23.2 °C 14.7 °C 1012.1 hPa ESE 5.6 km/h 2.7 km/h 59% 0 mm
02:04 23.2 °C 14.7 °C 1012.1 hPa ESE 1.9 km/h 1.8 km/h 59% 0 mm
02:09 23.1 °C 14.7 °C 1012.1 hPa ESE 3.2 km/h 1.3 km/h 59% 0 mm
02:14 23.2 °C 14.7 °C 1012.1 hPa ESE 7.4 km/h 3.7 km/h 59% 0 mm
02:19 23.2 °C 14.7 °C 1012.1 hPa South 1.9 km/h 1.3 km/h 59% 0 mm
02:24 23.2 °C 15 °C 1011.7 hPa ESE 3.7 km/h 1.1 km/h 60% 0 mm
02:29 23.2 °C 14.9 °C 1011.7 hPa SSE 7.4 km/h 5 km/h 60% 0 mm
02:34 23.2 °C 14.9 °C 1011.7 hPa SSE 13 km/h 5.6 km/h 60% 0 mm
02:38 23.2 °C 15.2 °C 1011.7 hPa ESE 3.7 km/h 1.4 km/h 61% 0 mm
02:44 23.2 °C 15.2 °C 1011.7 hPa ESE 5.6 km/h 1.6 km/h 61% 0 mm
02:49 23.1 °C 15.4 °C 1011.7 hPa SSE 5.6 km/h 1.6 km/h 62% 0 mm
02:54 23.1 °C 15.4 °C 1011.7 hPa SE 5.6 km/h 1.9 km/h 62% 0 mm
02:59 23.1 °C 15.4 °C 1011.4 hPa SE 5.6 km/h 2.9 km/h 62% 0 mm
03:04 23.1 °C 15.6 °C 1011.4 hPa SSE 14.8 km/h 4.5 km/h 63% 0 mm
03:09 23.1 °C 15.9 °C 1011.4 hPa SE 3.2 km/h 1.6 km/h 64% 0 mm
03:14 23 °C 15.8 °C 1011.4 hPa SE 5.6 km/h 2.4 km/h 64% 0 mm
03:19 23 °C 16.1 °C 1011.4 hPa SE 5.6 km/h 3.9 km/h 65% 0 mm
03:24 22.9 °C 16 °C 1011.4 hPa SSE 9.3 km/h 5 km/h 65% 0 mm
03:29 22.9 °C 16.2 °C 1011.1 hPa SSE 7.4 km/h 3.2 km/h 66% 0 mm
03:34 22.8 °C 16.2 °C 1011.1 hPa ESE 5.6 km/h 5.3 km/h 66% 0 mm
03:39 22.8 °C 16.4 °C 1011.1 hPa SE 7.4 km/h 3.2 km/h 67% 0 mm
03:44 22.8 °C 16.3 °C 1011.1 hPa SE 5.6 km/h 3.2 km/h 67% 0 mm
03:49 22.8 °C 16.6 °C 1011.1 hPa SE 11.1 km/h 3.5 km/h 68% 0 mm
03:54 22.7 °C 16.4 °C 1011.1 hPa SE 5.6 km/h 3.5 km/h 68% 0 mm
03:59 22.7 °C 16.7 °C 1011.1 hPa SE 11.1 km/h 0.8 km/h 69% 0 mm
04:04 22.6 °C 16.8 °C 1011.1 hPa SE 7.4 km/h 3.5 km/h 70% 0 mm
04:09 22.6 °C 16.8 °C 1011.1 hPa SSE 5.6 km/h 2.9 km/h 70% 0 mm
04:14 22.5 °C 17 °C 1010.7 hPa SE 5.6 km/h 1.6 km/h 71% 0 mm
04:19 22.5 °C 17 °C 1010.7 hPa East 3.7 km/h 3.4 km/h 71% 0 mm
04:24 22.5 °C 17.2 °C 1010.7 hPa ESE 12.9 km/h 3.9 km/h 72% 0 mm
04:29 22.4 °C 17.4 °C 1010.7 hPa SE 5.6 km/h 3.4 km/h 73% 0 mm
04:34 22.4 °C 17.4 °C 1010.7 hPa SE 5.6 km/h 3.2 km/h 73% 0 mm
04:39 22.4 °C 17.6 °C 1010.7 hPa SE 5.6 km/h 2.3 km/h 74% 0 mm
04:44 22.4 °C 17.6 °C 1010.7 hPa SE 5.6 km/h 1.3 km/h 74% 0 mm
04:49 22.4 °C 17.5 °C 1010.7 hPa SE 3.7 km/h 1.8 km/h 74% 0 mm
04:54 22.3 °C 17.7 °C 1010.4 hPa SE 3.7 km/h 1 km/h 75% 0 mm
04:59 22.3 °C 17.9 °C 1010.4 hPa SE 5.6 km/h 2.7 km/h 76% 0 mm
05:04 22.3 °C 18.1 °C 1010.4 hPa SSE 9.7 km/h 3.7 km/h 77% 0 mm
05:09 22.4 °C 18.4 °C 1010 hPa East 7.4 km/h 3.1 km/h 78% 0 mm
05:14 22.4 °C 18.4 °C 1010 hPa SSE 5.6 km/h 5 km/h 78% 0 mm
05:19 22.5 °C 18.7 °C 1010 hPa SE 5.6 km/h 3.4 km/h 79% 0 mm
05:24 22.6 °C 18.7 °C 1010 hPa SSE 5.6 km/h 3.2 km/h 79% 0 mm
05:29 22.6 °C 18.9 °C 1010 hPa SSW 9.3 km/h 4.5 km/h 80% 0 mm
05:34 22.6 °C 19 °C 1010.4 hPa South 7.4 km/h 1.6 km/h 80% 0 mm
05:39 22.6 °C 19.2 °C 1010.4 hPa South 3.7 km/h 3.4 km/h 81% 0 mm
05:44 22.6 °C 19.2 °C 1010 hPa SE 3.7 km/h 1.8 km/h 81% 0 mm
05:48 22.6 °C 19.4 °C 1010.4 hPa SSE 3.7 km/h 4.2 km/h 82% 0 mm
05:54 22.6 °C 19.4 °C 1010.4 hPa SSE 3.7 km/h 3.4 km/h 82% 0 mm
05:59 22.6 °C 19.4 °C 1010.4 hPa SE 5.6 km/h 1.4 km/h 82% 0 mm
06:04 22.6 °C 19.6 °C 1010.4 hPa ESE 6.4 km/h 2.1 km/h 83% 0 mm
06:09 22.6 °C 19.6 °C 1010.4 hPa SE 5.6 km/h 1.8 km/h 83% 0 mm
06:14 22.6 °C 19.8 °C 1010.4 hPa SSE 5.6 km/h 1.4 km/h 84% 0 mm
06:19 22.6 °C 19.8 °C 1010.4 hPa South 5.6 km/h 3.1 km/h 84% 0 mm
06:24 22.7 °C 19.8 °C 1010.4 hPa South 3.7 km/h 0.6 km/h 84% 0 mm
06:29 22.7 °C 19.9 °C 1010.4 hPa ESE 5.6 km/h 2.7 km/h 84% 0 mm
06:34 22.8 °C 20.1 °C 1010.4 hPa SSE 13 km/h 4.5 km/h 85% 0 mm
06:39 22.9 °C 20.2 °C 1010.4 hPa SSE 5.6 km/h 2.3 km/h 85% 0 mm
06:44 22.9 °C 20.3 °C 1010.4 hPa ESE 6.4 km/h 2.4 km/h 85% 0 mm
06:48 23.1 °C 20.4 °C 1010.4 hPa South 7.4 km/h 3.2 km/h 85% 0 mm
06:54 23.3 °C 20.6 °C 1010 hPa SE 5.6 km/h 2.4 km/h 85% 0 mm
06:59 23.4 °C 20.8 °C 1010.4 hPa South 9.3 km/h 5 km/h 85% 0 mm
07:04 23.6 °C 20.7 °C 1010 hPa South 9.3 km/h 3.9 km/h 84% 0 mm
07:09 23.7 °C 20.8 °C 1010.4 hPa SSE 11.3 km/h 8.2 km/h 84% 0 mm
07:14 23.8 °C 20.9 °C 1010.4 hPa South 9.3 km/h 4.5 km/h 84% 0 mm
07:19 23.9 °C 21 °C 1010 hPa SSE 5.6 km/h 1.9 km/h 84% 0 mm
07:24 23.9 °C 21.1 °C 1010 hPa South 11.3 km/h 6.8 km/h 84% 0 mm
07:29 23.9 °C 21.1 °C 1010 hPa ESE 7.4 km/h 5.1 km/h 84% 0 mm
07:34 24 °C 21.1 °C 1010 hPa South 5.6 km/h 4 km/h 84% 0 mm
07:39 24.1 °C 21.2 °C 1010.4 hPa ESE 18.5 km/h 10.3 km/h 84% 0 mm
07:44 24.2 °C 21.3 °C 1010 hPa SSE 9.3 km/h 7.9 km/h 84% 0 mm
07:49 24.4 °C 21.6 °C 1010 hPa SSW 9.3 km/h 3.2 km/h 84% 0 mm
07:54 24.7 °C 21.6 °C 1010 hPa SSW 9.7 km/h 4.2 km/h 83% 0 mm
07:59 24.8 °C 21.6 °C 1010.4 hPa SSE 7.4 km/h 4.7 km/h 82% 0 mm
08:04 25.1 °C 21.8 °C 1010.4 hPa SE 14.8 km/h 4.8 km/h 82% 0 mm
08:09 25.3 °C 21.8 °C 1010.4 hPa SE 11.1 km/h 6.9 km/h 81% 0 mm
08:14 25.4 °C 21.7 °C 1010.4 hPa SE 7.4 km/h 4.8 km/h 80% 0 mm
08:19 25.7 °C 22 °C 1010.4 hPa SSW 14.8 km/h 4.7 km/h 80% 0 mm
08:24 25.9 °C 22 °C 1010.4 hPa SSE 14.8 km/h 10.9 km/h 79% 0 mm
08:29 26.2 °C 21.9 °C 1010.4 hPa SSE 14.5 km/h 10.1 km/h 77% 0 mm
08:34 26.4 °C 21.9 °C 1010.4 hPa South 20.4 km/h 6.4 km/h 76% 0 mm
08:39 26.7 °C 21.9 °C 1010.7 hPa South 14.8 km/h 10.1 km/h 75% 0 mm
08:44 26.9 °C 21.9 °C 1010.7 hPa East 9.7 km/h 6.3 km/h 74% 0 mm
08:49 27.2 °C 21.9 °C 1010.7 hPa SSE 9.3 km/h 6.6 km/h 73% 0 mm
08:54 27.6 °C 21.8 °C 1010.7 hPa South 16.7 km/h 10.1 km/h 71% 0 mm
08:59 27.9 °C 21.7 °C 1010.7 hPa South 16.7 km/h 7.1 km/h 69% 0 mm
09:04 28.2 °C 21.8 °C 1010.7 hPa South 13 km/h 2.3 km/h 68% 0 mm
09:08 28.4 °C 21.7 °C 1010.7 hPa East 16.7 km/h 6.1 km/h 67% 0 mm
09:14 28.6 °C 21.6 °C 1010.7 hPa SSE 14.8 km/h 5.3 km/h 66% 0 mm
09:19 28.8 °C 21.6 °C 1010.7 hPa SSW 14.8 km/h 10.3 km/h 65% 0 mm
09:24 28.9 °C 21.7 °C 1010.7 hPa SW 11.1 km/h 6.6 km/h 65% 0 mm
09:29 29 °C 21.2 °C 1011.1 hPa South 16.7 km/h 5.5 km/h 63% 0 mm
09:34 29.3 °C 21.8 °C 1010.7 hPa SSW 13 km/h 8.4 km/h 64% 0 mm
09:39 29.5 °C 21.7 °C 1010.7 hPa South 11.1 km/h 6.3 km/h 63% 0 mm
09:44 29.6 °C 21.5 °C 1010.7 hPa ESE 5.6 km/h 3.1 km/h 62% 0 mm
09:49 29.7 °C 21.6 °C 1010.7 hPa SSW 13 km/h 7.1 km/h 62% 0 mm
09:54 29.7 °C 21.4 °C 1010.4 hPa SSE 18.5 km/h 10.5 km/h 61% 0 mm
09:59 29.6 °C 21.6 °C 1010.4 hPa SSE 11.1 km/h 4.5 km/h 62% 0 mm
10:04 29.8 °C 21.8 °C 1010.4 hPa South 13 km/h 6 km/h 62% 0 mm
10:09 29.8 °C 21.5 °C 1010.4 hPa South 7.4 km/h 3.7 km/h 61% 0 mm
10:14 30 °C 21.9 °C 1010.4 hPa ESE 11.1 km/h 5.5 km/h 62% 0 mm
10:19 30.2 °C 21.8 °C 1010.4 hPa SSE 11.1 km/h 11.3 km/h 61% 0 mm
10:24 30.2 °C 21.6 °C 1010.4 hPa East 13 km/h 7.4 km/h 60% 0 mm
10:29 30.3 °C 21.9 °C 1010.4 hPa South 9.3 km/h 4 km/h 61% 0 mm
10:34 30.3 °C 21.7 °C 1010.4 hPa SW 16.7 km/h 10.8 km/h 60% 0 mm
10:39 30.4 °C 21.6 °C 1010.4 hPa SSW 9.3 km/h 7.7 km/h 59% 0 mm
10:44 30.7 °C 21.8 °C 1010.4 hPa South 7.4 km/h 7.6 km/h 59% 0 mm
10:49 30.9 °C 22.2 °C 1010.4 hPa South 1.9 km/h 3.1 km/h 60% 0 mm
10:54 31.2 °C 21.6 °C 1010.4 hPa SW 13 km/h 9.7 km/h 57% 0 mm
10:59 31.3 °C 21.4 °C 1010.4 hPa SSE 16.7 km/h 11.3 km/h 56% 0 mm
11:04 31.1 °C 21 °C 1010.4 hPa WNW 11.1 km/h 9.5 km/h 55% 0 mm
11:09 31.3 °C 21.7 °C 1010.4 hPa SSE 14.8 km/h 9.7 km/h 57% 0 mm
11:13 31.4 °C 21.6 °C 1010.4 hPa SSW 13 km/h 7.6 km/h 56% 0 mm
11:19 31.6 °C 22.1 °C 1010.4 hPa NNW 4.8 km/h 2.1 km/h 57% 0 mm
11:24 32 °C 21.6 °C 1010.4 hPa SSE 11.1 km/h 5.8 km/h 54% 0 mm
11:29 32.1 °C 21.3 °C 1010.4 hPa SSW 7.4 km/h 4.2 km/h 53% 0 mm
11:34 32.3 °C 22.1 °C 1010.4 hPa SW 3.7 km/h 1.4 km/h 55% 0 mm
11:39 32.5 °C 21.7 °C 1010.4 hPa SE 13 km/h 3.7 km/h 53% 0 mm
11:44 32.9 °C 22.1 °C 1010.4 hPa South 5.6 km/h 3.1 km/h 53% 0 mm
11:49 33.2 °C 21.3 °C 1010.4 hPa South 9.3 km/h 4.3 km/h 50% 0 mm
11:54 33.2 °C 21 °C 1010.4 hPa SSE 18.5 km/h 8.9 km/h 49% 0 mm
11:59 32.9 °C 20.8 °C 1010.4 hPa South 11.1 km/h 5.6 km/h 49% 0 mm
12:04 33 °C 20.9 °C 1010.4 hPa SSE 9.3 km/h 6 km/h 49% 0 mm
12:09 33.2 °C 21 °C 1010.4 hPa SSW 13 km/h 7.2 km/h 49% 0 mm
12:14 33.4 °C 21.6 °C 1010 hPa SSW 9.3 km/h 5.6 km/h 50% 0 mm
12:19 33.7 °C 21.1 °C 1010 hPa SW 9.3 km/h 6.9 km/h 48% 0 mm
12:24 33.7 °C 21.1 °C 1010 hPa SSW 9.3 km/h 2.1 km/h 48% 0 mm
12:29 33.7 °C 20.8 °C 1010 hPa SE 9.3 km/h 4 km/h 47% 0 mm
12:34 33.9 °C 21 °C 1010 hPa South 18.5 km/h 8.9 km/h 47% 0 mm
12:39 34 °C 20.7 °C 1009.7 hPa SSE 13 km/h 7.4 km/h 46% 0 mm
12:44 34.2 °C 20.9 °C 1009.7 hPa SSW 13 km/h 5.5 km/h 46% 0 mm
12:49 34.3 °C 20.7 °C 1009.7 hPa SSW 13 km/h 6.9 km/h 45% 0 mm
12:54 34.2 °C 20.9 °C 1009.7 hPa SE 7.4 km/h 2.3 km/h 46% 0 mm
12:59 34.4 °C 20.7 °C 1009.7 hPa South 5.6 km/h 3.9 km/h 45% 0 mm
13:04 34.3 °C 20.7 °C 1009.7 hPa SE 9.3 km/h 4.2 km/h 45% 0 mm
13:09 34.6 °C 20.9 °C 1009.7 hPa SSE 11.1 km/h 6.9 km/h 45% 0 mm
13:14 34.7 °C 21.4 °C 1009.7 hPa South 11.3 km/h 5.3 km/h 46% 0 mm
13:19 34.6 °C 20.9 °C 1009.7 hPa SSE 3.7 km/h 2.4 km/h 45% 0 mm
13:24 34.8 °C 21.5 °C 1009.4 hPa ESE 5.6 km/h 4.3 km/h 46% 0 mm
13:29 34.9 °C 20.4 °C 1009.7 hPa SSE 11.1 km/h 8 km/h 43% 0 mm
13:34 34.7 °C 21.1 °C 1009.4 hPa NW 18.5 km/h 4 km/h 45% 0 mm
13:39 34.6 °C 20.9 °C 1009.4 hPa South 7.4 km/h 2.7 km/h 45% 0 mm
13:44 34.8 °C 21.1 °C 1009.4 hPa ESE 13 km/h 3.2 km/h 45% 0 mm
13:49 34.9 °C 20.4 °C 1009.4 hPa East 18.5 km/h 6.8 km/h 43% 0 mm
13:54 34.8 °C 20 °C 1009.4 hPa SSW 11.1 km/h 7.1 km/h 42% 0 mm
13:59 34.9 °C 20.1 °C 1009.4 hPa South 11.3 km/h 4.5 km/h 42% 0 mm
14:04 35.1 °C 20.7 °C 1009.4 hPa SSW 5.6 km/h 1.9 km/h 43% 0 mm
14:09 35.4 °C 20.5 °C 1009.4 hPa SSE 13 km/h 9.7 km/h 42% 0 mm
14:14 35.6 °C 20.7 °C 1009.4 hPa SSW 5.6 km/h 1.9 km/h 42% 0 mm
14:19 35.6 °C 20.7 °C 1009.4 hPa SSW 5.6 km/h 1.9 km/h 42% 0 mm
14:24 35.2 °C 21.1 °C 1009.4 hPa South 16.7 km/h 10.8 km/h 44% 0 mm
14:29 34.9 °C 20.5 °C 1009.4 hPa South 16.7 km/h 10.3 km/h 43% 0 mm
14:34 34.8 °C 20.7 °C 1009.4 hPa SE 13 km/h 7.7 km/h 44% 0 mm
14:39 34.6 °C 21.2 °C 1009.4 hPa South 11.3 km/h 8.2 km/h 46% 0 mm
14:44 34.7 °C 20.6 °C 1009.4 hPa SE 14.8 km/h 6.3 km/h 44% 0 mm
14:49 34.7 °C 20.7 °C 1009.4 hPa SSE 9.3 km/h 8.5 km/h 44% 0 mm
14:54 34.6 °C 20.9 °C 1009.4 hPa SSW 16.1 km/h 4 km/h 45% 0 mm
14:59 34.7 °C 21.3 °C 1009.4 hPa SSE 5.6 km/h 2.1 km/h 46% 0 mm
15:04 35 °C 20.9 °C 1009.4 hPa SSW 9.3 km/h 2.3 km/h 44% 0 mm
15:09 35.2 °C 21.1 °C 1009.4 hPa SW 16.7 km/h 9.2 km/h 44% 0 mm
15:14 34.9 °C 20.5 °C 1009.4 hPa South 17.7 km/h 10.5 km/h 43% 0 mm
15:19 34.8 °C 20.3 °C 1009 hPa SE 16.7 km/h 9.8 km/h 43% 0 mm
15:24 34.9 °C 20.8 °C 1009 hPa SSE 11.1 km/h 5.6 km/h 44% 0 mm
15:29 35.1 °C 20.6 °C 1009 hPa South 3.7 km/h 6.3 km/h 43% 0 mm
15:34 35.3 °C 20.4 °C 1009 hPa SSE 18.5 km/h 6.3 km/h 42% 0 mm
15:39 35 °C 20.2 °C 1009 hPa South 11.1 km/h 10.5 km/h 42% 0 mm
15:44 35.1 °C 19.9 °C 1009 hPa South 14.8 km/h 6.3 km/h 41% 0 mm
15:49 35.3 °C 20.4 °C 1008.7 hPa SSE 5.6 km/h 2.4 km/h 42% 0 mm
15:54 35.6 °C 20.7 °C 1008.7 hPa South 7.4 km/h 2.3 km/h 42% 0 mm
15:59 35.3 °C 20.1 °C 1008.7 hPa South 18.5 km/h 10.1 km/h 41% 0 mm
16:04 35.1 °C 20.2 °C 1008.4 hPa South 13 km/h 5.3 km/h 42% 0 mm
16:09 35.1 °C 20.2 °C 1008.4 hPa South 14.8 km/h 3.4 km/h 42% 0 mm
16:14 35.3 °C 19.6 °C 1008.4 hPa SE 13 km/h 9.8 km/h 40% 0 mm
16:19 35.1 °C 19.9 °C 1008 hPa SSE 14.5 km/h 6.6 km/h 41% 0 mm
16:24 35.1 °C 19.9 °C 1008 hPa SSE 11.1 km/h 5.5 km/h 41% 0 mm
16:29 35.2 °C 19.6 °C 1008 hPa South 3.7 km/h 3.7 km/h 40% 0 mm
16:34 35.2 °C 19.6 °C 1008 hPa SE 18.5 km/h 9.3 km/h 40% 0 mm
16:39 35.1 °C 19.8 °C 1008 hPa SE 13 km/h 11.3 km/h 41% 0 mm
16:44 34.9 °C 20.1 °C 1007.7 hPa South 13 km/h 6.9 km/h 42% 0 mm
16:49 34.8 °C 19.6 °C 1007.7 hPa SSW 16.7 km/h 4.8 km/h 41% 0 mm
16:54 34.8 °C 20 °C 1007.7 hPa SSE 18.5 km/h 6.6 km/h 42% 0 mm
16:59 34.7 °C 20.3 °C 1007.3 hPa South 13 km/h 8 km/h 43% 0 mm
17:04 34.8 °C 21.1 °C 1007.3 hPa SSW 13 km/h 3.9 km/h 45% 0 mm
17:09 34.8 °C 20.3 °C 1007.3 hPa SSW 13 km/h 5.1 km/h 43% 0 mm
17:14 34.7 °C 20.3 °C 1007.3 hPa SW 16.7 km/h 5.1 km/h 43% 0 mm
17:19 34.6 °C 20.6 °C 1007 hPa South 14.8 km/h 4.8 km/h 44% 0 mm
17:24 34.6 °C 20.6 °C 1007 hPa SSE 42.6 km/h 16.3 km/h 44% 0 mm
17:29 34.3 °C 20.3 °C 1007 hPa SE 13 km/h 7.7 km/h 44% 0 mm
17:34 34.2 °C 20.2 °C 1007 hPa SSW 13 km/h 6.8 km/h 44% 0 mm
17:39 34.3 °C 20.3 °C 1007 hPa SSW 11.1 km/h 3.9 km/h 44% 0 mm
17:44 34.4 °C 20.4 °C 1007 hPa SSE 16.7 km/h 7.1 km/h 44% 0 mm
17:49 34.4 °C 20.4 °C 1006.7 hPa ESE 14.8 km/h 7.6 km/h 44% 0 mm
17:54 34.4 °C 20.4 °C 1007 hPa West 5.6 km/h 6.8 km/h 44% 0 mm
17:59 34.3 °C 20.3 °C 1007 hPa South 14.8 km/h 9.7 km/h 44% 0 mm
18:04 34.1 °C 20.1 °C 1006.7 hPa SSE 14.8 km/h 11.4 km/h 44% 0 mm
18:09 33.9 °C 19.6 °C 1007 hPa SSW 18.5 km/h 14.3 km/h 43% 0 mm
18:14 33.8 °C 19.5 °C 1007 hPa SSE 14.8 km/h 12.2 km/h 43% 0 mm
18:19 33.8 °C 19.4 °C 1006.7 hPa SSE 14.8 km/h 10 km/h 43% 0 mm
18:24 33.8 °C 19.4 °C 1006.7 hPa SSE 14.5 km/h 7.4 km/h 43% 0 mm
18:29 33.8 °C 19.4 °C 1006.7 hPa SE 13 km/h 6.8 km/h 43% 0 mm
18:34 33.8 °C 19.1 °C 1006.7 hPa SSW 13 km/h 9.2 km/h 42% 0 mm
18:39 33.7 °C 19.3 °C 1006.7 hPa South 20.4 km/h 8.7 km/h 43% 0 mm
18:44 33.6 °C 19.3 °C 1006.7 hPa SW 12.9 km/h 6.3 km/h 43% 0 mm
18:49 33.6 °C 19.3 °C 1006.7 hPa WSW 22.5 km/h 8.9 km/h 43% 0 mm
18:54 33.4 °C 19.1 °C 1006.7 hPa SSE 22.2 km/h 6 km/h 43% 0 mm
18:59 33.3 °C 19 °C 1006.7 hPa SW 16.7 km/h 9.7 km/h 43% 0 mm
19:04 33.2 °C 19.3 °C 1006.7 hPa South 11.1 km/h 9 km/h 44% 0 mm
19:09 33.1 °C 18.8 °C 1006.7 hPa South 31.5 km/h 15.8 km/h 43% 0 mm
19:14 33 °C 19.1 °C 1006.7 hPa SSE 18.5 km/h 7.9 km/h 44% 0 mm
19:19 32.9 °C 19.1 °C 1006.7 hPa SW 13 km/h 9.7 km/h 44% 0 mm
19:24 32.9 °C 19.4 °C 1006.7 hPa SSW 12.9 km/h 4.2 km/h 45% 0 mm
19:29 32.8 °C 19.3 °C 1006.7 hPa SW 11.1 km/h 7.4 km/h 45% 0 mm
19:34 32.7 °C 19.2 °C 1007 hPa SSE 18.5 km/h 11.7 km/h 45% 0 mm
19:39 32.7 °C 19.6 °C 1007 hPa SSE 9.7 km/h 7.1 km/h 46% 0 mm
19:44 32.6 °C 19.5 °C 1007.3 hPa SE 14.5 km/h 7.7 km/h 46% 0 mm
19:49 32.6 °C 19.8 °C 1007 hPa SW 7.4 km/h 6 km/h 47% 0 mm
19:54 32.4 °C 19.7 °C 1007.3 hPa SE 13 km/h 7.4 km/h 47% 0 mm
19:59 32.3 °C 20.3 °C 1007.3 hPa East 14.8 km/h 5.5 km/h 49% 0 mm
20:04 32.2 °C 20.4 °C 1007.3 hPa ESE 7.4 km/h 1.4 km/h 50% 0 mm
20:09 32.1 °C 20.3 °C 1007 hPa SE 11.3 km/h 7.4 km/h 50% 0 mm
20:14 31.9 °C 20.6 °C 1007.3 hPa East 6.4 km/h 3.9 km/h 51% 0 mm
20:19 31.8 °C 20.8 °C 1007.3 hPa SSW 14.8 km/h 7.9 km/h 52% 0 mm
20:24 31.7 °C 20.9 °C 1007.3 hPa SW 14.8 km/h 5.8 km/h 53% 0 mm
20:29 31.5 °C 21.1 °C 1007.3 hPa South 7.4 km/h 5.3 km/h 54% 0 mm
20:34 31.3 °C 21.2 °C 1007.3 hPa SSE 9.7 km/h 4.8 km/h 55% 0 mm
20:39 31.2 °C 21.3 °C 1007.3 hPa SSE 5.6 km/h 2.6 km/h 56% 0 mm
20:44 31.1 °C 21.6 °C 1007.3 hPa SE 7.4 km/h 3.7 km/h 57% 0 mm
20:49 30.9 °C 21.4 °C 1007.3 hPa South 13 km/h 9.8 km/h 57% 0 mm
20:54 30.8 °C 21.3 °C 1007.3 hPa South 9.3 km/h 5.1 km/h 57% 0 mm
20:59 30.7 °C 21.2 °C 1007.3 hPa South 9.3 km/h 4.3 km/h 57% 0 mm
21:04 30.7 °C 21.4 °C 1007.3 hPa SSE 9.3 km/h 3.5 km/h 58% 0 mm
21:09 30.6 °C 21.3 °C 1007.3 hPa East 9.3 km/h 7.9 km/h 58% 0 mm
21:14 30.4 °C 21.2 °C 1007.7 hPa SSE 11.1 km/h 5.1 km/h 58% 0 mm
21:19 30.3 °C 21.2 °C 1007.3 hPa South 11.1 km/h 6.9 km/h 58% 0 mm
21:24 30.3 °C 21.1 °C 1007.3 hPa SSE 13 km/h 6 km/h 58% 0 mm
21:29 30.2 °C 21 °C 1007.7 hPa SSE 18.5 km/h 5.8 km/h 58% 0 mm
21:33 30.2 °C 21 °C 1007.7 hPa South 7.4 km/h 2.7 km/h 58% 0 mm
21:39 30.1 °C 20.9 °C 1007.7 hPa South 18.5 km/h 5 km/h 58% 0 mm
21:44 30.1 °C 20.9 °C 1007.7 hPa SSE 18.5 km/h 11.3 km/h 58% 0 mm
21:49 30 °C 20.6 °C 1007.7 hPa SSE 17.7 km/h 8.7 km/h 57% 0 mm
21:54 29.9 °C 20.5 °C 1008 hPa SE 18.5 km/h 3.1 km/h 57% 0 mm
21:59 29.9 °C 20.7 °C 1008 hPa ESE 11.1 km/h 4.2 km/h 58% 0 mm
22:03 29.8 °C 20.6 °C 1008 hPa South 20.4 km/h 5.5 km/h 58% 0 mm
22:09 29.7 °C 20.6 °C 1008 hPa South 18.5 km/h 3.7 km/h 58% 0 mm
22:14 29.7 °C 20.5 °C 1008.4 hPa SE 9.3 km/h 4.8 km/h 58% 0 mm
22:19 29.5 °C 20.7 °C 1008.4 hPa ESE 13 km/h 5.6 km/h 59% 0 mm
22:24 29.4 °C 20.9 °C 1008.4 hPa South 12.9 km/h 4.7 km/h 60% 0 mm
22:29 29.3 °C 20.8 °C 1008.4 hPa South 12.9 km/h 5 km/h 60% 0 mm
22:34 29.3 °C 21 °C 1008.4 hPa ESE 13 km/h 4.7 km/h 61% 0 mm
22:39 29.2 °C 20.9 °C 1008.4 hPa SSE 9.3 km/h 8.7 km/h 61% 0 mm
22:44 29.2 °C 20.9 °C 1008.4 hPa ESE 13 km/h 6.6 km/h 61% 0 mm
22:49 29.1 °C 21.1 °C 1008.4 hPa South 18.5 km/h 4.2 km/h 62% 0 mm
22:54 29 °C 21 °C 1008.4 hPa South 6.4 km/h 2.9 km/h 62% 0 mm
22:59 28.9 °C 20.9 °C 1008.4 hPa South 11.1 km/h 8.2 km/h 62% 0 mm
23:04 28.9 °C 21.1 °C 1008.4 hPa SSE 13 km/h 10 km/h 63% 0 mm
23:09 28.8 °C 21.1 °C 1008.4 hPa South 12.9 km/h 6.4 km/h 63% 0 mm
23:14 28.8 °C 21.1 °C 1008.4 hPa SSW 13 km/h 6.4 km/h 63% 0 mm
23:19 28.7 °C 21 °C 1008.4 hPa SSE 7.4 km/h 5.1 km/h 63% 0 mm
23:24 28.7 °C 21.2 °C 1008.7 hPa South 5.6 km/h 7.1 km/h 64% 0 mm
23:29 28.7 °C 20.9 °C 1008.7 hPa SSW 9.3 km/h 4 km/h 63% 0 mm
23:34 28.7 °C 20.9 °C 1008.7 hPa SW 14.8 km/h 5.1 km/h 63% 0 mm
23:39 28.6 °C 21.1 °C 1008.7 hPa SW 13 km/h 5.8 km/h 64% 0 mm
23:44 28.6 °C 21.1 °C 1008.7 hPa SE 5.6 km/h 1.6 km/h 64% 0 mm
23:49 28.6 °C 21.1 °C 1008.7 hPa SE 11.3 km/h 6.9 km/h 64% 0 mm
23:54 28.5 °C 21 °C 1008.7 hPa South 9.3 km/h 4.7 km/h 64% 0 mm
23:59 28.4 °C 21 °C 1008.7 hPa North 9.3 km/h 5 km/h 64% 0 mm
Live Lenexa Weather
Compliments of Weather Underground - 1.75 mb